Temperature
15 15 15 16 12 10 12 13 14 15 15 17 17 16 15 15 15 15 14 14 15 15 15 15 15 15 15 15 16 16 16 15 15 15 15 16 16 16 16 16 16 16 15 15 15 15 15 15 15
15 15 15 15 10 11 12 13 14 15 16 17 17 16 15 15 15 15 14 14 15 15 15 15 15 15 15 15 15 15 15 15 15 15 15 15 16 16 15 16 16 15 15 15 15 15 15 15 15
15 15 15 10 10 11 13 14 14 15 16 16 16 16 15 14 14 14 14 15 15 15 15 15 15 15 15 15 15 15 15 15 15 15 15 15 15 15 15 15 15 15 15 15 15 15 15 15 15
15 15 14 10 12 12 13 13 13 14 15 16 15 14 14 14 14 14 14 14 14 14 14 14 14 14 14 14 14 15 15 15 15 15 15 15 15 15 15 15 15 15 15 15 15 15 15 15 14
14 14 11 10 12 12 12 13 14 13 14 15 14 13 13 13 14 14 14 14 14 14 14 14 14 14 14 14 14 14 15 15 15 15 15 15 15 15 15 15 15 15 15 15 15 15 14 14 14
14 11 9 10 12 12 12 13 14 13 13 14 14 13 13 13 13 13 13 13 14 14 14 13 14 14 14 14 14 14 14 14 15 15 15 15 15 15 15 15 15 15 15 15 15 14 14 14 14
12 9 10 11 11 12 12 13 13 12 12 13 14 12 12 13 13 13 13 13 13 13 13 13 13 13 13 14 14 14 14 14 14 14 15 15 15 14 14 14 14 14 14 14 14 14 14 14 13
13 9 11 10 11 11 12 13 13 13 12 13 13 12 12 12 13 13 13 13 13 13 13 13 13 13 13 13 13 13 13 14 14 14 14 14 14 14 14 14 14 14 14 14 14 14 14 13 13
13 8 9 11 11 11 12 12 12 13 13 12 12 12 12 12 12 12 12 12 12 12 12 12 12 13 13 13 13 13 13 13 13 14 14 14 14 14 14 14 14 14 14 14 14 14 13 13 13
11 8 10 11 11 11 11 11 12 12 11 11 12 12 12 12 12 12 12 12 12 12 12 12 12 12 12 12 13 13 13 13 13 13 13 13 13 13 14 14 14 14 14 13 13 13 13 13 13
11 9 10 11 12 12 11 11 11 11 10 11 11 11 11 11 11 11 11 11 11 11 11 11 11 11 12 12 12 12 13 13 13 13 13 13 13 13 13 13 13 13 13 13 13 13 13 13 13
11 11 11 11 12 11 11 11 11 11 11 12 11 11 11 11 11 11 11 11 11 11 11 11 11 11 11 12 12 12 12 12 13 13 13 13 13 13 13 13 13 13 13 13 13 13 13 13 12
10 10 11 12 12 11 11 10 10 11 11 11 11 11 11 11 11 11 11 11 11 11 11 11 11 11 11 11 11 12 12 12 12 12 12 12 12 12 13 13 13 13 13 12 12 12 13 12 12
10 10 11 11 11 11 10 10 10 11 12 11 11 11 11 11 11 11 11 11 11 11 11 11 10 10 10 11 11 11 11 12 12 12 12 12 12 12 12 12 12 12 12 12 12 12 12 12 12
11 10 9 10 10 11 10 9 9 11 11 11 11 11 11 11 11 11 10 10 10 10 10 10 10 10 10 10 11 11 11 11 11 11 11 11 11 12 12 12 12 12 12 12 12 12 12 12 11
10 9 8 10 10 10 10 8 9 11 11 11 11 11 11 11 11 10 10 10 10 10 10 10 10 10 10 10 10 10 10 11 11 11 11 11 11 11 11 12 11 11 11 11 11 11 11 11 11
8 8 8 9 10 10 9 8 9 11 10 10 10 10 10 10 10 10 10 10 10 10 10 10 10 10 10 10 10 10 10 10 10 10 10 11 11 11 11 11 11 11 11 11 11 11 11 11 11
8 8 8 9 10 9 8 8 9 10 10 9 10 10 10 10 10 10 10 10 10 10 10 10 10 10 9 9 9 9 9 9 10 10 10 10 11 11 11 11 11 11 11 11 11 11 11 11 10
9 9 8 9 10 9 8 8 9 9 9 9 9 9 10 10 10 10 9 9 9 9 9 9 9 9 9 9 9 9 9 9 9 9 10 10 10 10 10 10 11 11 11 11 11 10 10 10 10
9 8 8 8 9 9 8 8 9 9 9 9 9 9 9 9 9 9 9 9 9 9 9 9 9 9 9 9 9 8 8 9 9 9 9 10 10 10 10 10 10 10 10 10 10 10 10 10 10
9 8 8 8 8 9 8 8 8 9 9 9 9 9 9 9 9 9 9 9 9 9 8 8 8 8 8 8 8 8 8 8 8 8 9 9 9 9 9 10 10 10 10 10 10 10 10 10 9
8 9 9 8 7 6 7 7 8 8 8 8 8 9 9 9 9 9 9 8 8 8 8 8 8 8 8 8 8 8 8 8 8 8 8 8 9 9 9 9 9 9 9 9 9 10 9 10 9
8 9 8 8 7 6 6 6 7 7 8 8 8 8 9 9 9 8 8 8 8 8 8 8 8 8 8 8 7 7 7 7 7 8 8 8 8 8 8 9 9 9 9 9 9 9 9 9 9
9 8 8 6 6 7 7 6 7 6 8 8 8 8 8 8 8 8 8 8 8 8 8 8 7 7 7 7 7 7 7 7 7 7 7 7 8 8 8 8 8 8 9 9 9 9 8 8 8
8 7 6 6 6 7 7 6 7 7 8 8 7 8 8 8 8 8 8 8 8 7 7 7 7 7 7 7 7 7 7 7 7 7 7 7 7 7 7 7 8 8 8 8 8 8 8 8 8
7 7 7 7 7 6 6 6 7 8 8 8 8 8 8 8 8 7 7 7 7 7 7 7 7 7 7 7 7 6 6 6 6 6 7 7 7 7 7 7 7 7 7 7 8 7 7 7 8
7 6 7 6 6 6 6 6 7 8 7 7 7 7 7 7 7 7 7 7 7 7 7 7 7 6 6 6 6 6 6 6 6 6 6 6 7 7 7 7 7 7 7 7 7 7 7 7 7
8 7 5 6 6 7 7 6 6 7 7 6 6 6 7 7 7 7 7 7 7 7 7 7 6 6 6 6 6 6 6 6 6 6 6 6 6 6 7 7 7 7 7 7 7 7 7 7 7
7 7 6 5 5 6 6 7 7 7 7 6 6 7 7 7 7 7 7 7 7 7 6 6 6 6 6 6 6 5 6 6 6 6 6 6 6 6 6 6 6 6 6 6 6 6 6 6 6
7 7 6 6 6 5 5 6 8 7 7 6 6 7 7 7 7 7 7 6 6 6 6 6 6 6 5 5 5 5 5 5 5 5 6 5 5 6 6 6 6 6 6 6 6 6 6 6 6
Wind_Speed
14 11 3 4 6 5 1 3 2 2 2 2 1 2 4 3 2 2 1 0 3 4 4 6 6 6 5 5 6 6 7 8 8 8 9 10 10 11 11 10 10 10 11 11 12 12 12 12 12
9 3 5 5 5 2 3 3 2 2 3 2 2 2 3 2 2 3 1 1 3 4 4 4 5 5 5 5 5 6 6 7 8 8 8 9 10 11 10 10 10 10 11 11 11 12 12 12 12
6 3 5 5 4 5 4 3 3 3 3 2 2 2 3 1 1 1 1 1 3 3 4 4 5 5 5 5 5 6 6 7 8 8 8 9 10 11 11 10 10 10 10 11 11 11 12 12 11
4 5 5 5 2 3 3 3 2 2 4 4 2 3 2 2 0 1 1 3 4 2 2 4 4 5 5 5 5 5 6 7 8 8 8 9 9 10 10 11 11 11 10 11 11 11 11 11 11
4 5 5 2 2 2 1 2 0 1 2 3 2 1 2 3 2 3 3 4 3 1 1 3 4 4 5 6 5 5 6 7 8 8 9 9 10 10 11 11 11 11 11 10 10 11 11 11 10
5 5 4 1 2 1 2 3 1 1 1 3 2 1 2 2 2 2 3 3 2 2 1 3 4 4 5 6 6 6 5 7 8 8 9 10 10 10 11 11 12 12 12 11 10 10 10 10 10
5 4 3 2 1 1 2 2 2 1 2 2 0 0 2 3 2 1 3 3 3 2 2 1 3 3 4 5 6 6 6 6 7 8 8 9 10 11 11 12 12 12 12 11 10 10 10 10 10
5 4 2 0 1 2 2 2 1 1 2 2 1 2 3 4 3 2 2 3 3 2 2 1 1 2 2 3 6 7 6 6 7 8 8 9 9 10 11 12 12 11 11 11 10 9 9 9 10
4 4 1 2 2 2 2 2 4 2 1 2 1 2 3 2 2 3 3 3 2 2 2 1 0 1 2 3 4 6 6 6 6 7 8 9 8 8 9 11 12 12 11 10 10 10 9 8 9
5 3 3 2 2 2 2 2 3 3 4 3 4 4 3 2 1 1 1 1 1 1 1 1 1 0 1 2 3 3 5 5 5 6 7 7 8 8 8 10 11 11 11 10 9 9 9 8 8
3 3 2 2 2 2 2 3 2 1 5 5 4 4 3 3 3 2 2 2 3 2 1 0 1 0 1 1 2 2 3 4 5 6 7 8 8 8 8 7 7 8 9 8 8 7 7 7 7
1 2 2 3 2 2 3 3 3 4 8 6 6 5 4 4 4 4 4 4 3 2 2 2 1 0 1 2 2 2 2 3 3 5 7 7 5 5 6 5 5 6 6 6 6 5 6 7 8
1 2 3 3 3 3 4 5 4 7 10 7 6 5 5 6 6 5 5 4 3 2 2 2 1 1 1 2 2 2 2 2 3 5 6 8 5 5 5 4 5 5 5 6 5 5 5 5 7
2 3 5 5 5 3 4 6 3 9 7 5 5 6 6 6 6 5 4 4 4 3 3 2 2 1 1 2 3 3 3 3 3 4 6 8 7 6 5 4 4 4 5 6 6 5 5 5 6
1 3 6 4 4 3 1 6 5 10 5 5 5 6 6 6 6 5 5 4 4 4 3 2 2 1 2 2 3 3 2 3 3 3 5 7 8 7 6 4 4 4 5 6 6 6 6 5 5
2 2 4 5 2 2 2 7 7 6 3 6 6 6 6 5 5 5 4 4 4 3 3 2 1 2 2 1 2 2 3 3 3 4 4 6 8 9 6 5 4 5 6 5 4 4 5 5 5
2 2 4 6 2 1 3 7 8 4 3 6 6 5 5 4 4 4 3 3 3 3 3 2 2 2 2 2 2 3 3 2 3 3 4 5 6 8 7 5 5 7 5 4 4 4 5 5 5
3 3 4 5 3 1 4 9 10 6 4 6 6 5 4 4 5 4 3 2 1 1 2 2 2 3 3 3 3 3 3 2 2 2 3 5 5 6 6 5 5 6 4 4 4 4 4 5 5
3 4 6 7 4 2 6 10 11 7 5 5 5 5 4 5 5 2 1 0 1 1 2 2 3 3 4 3 3 2 2 2 1 2 2 4 5 5 5 4 5 5 4 5 6 5 5 4 4
3 4 5 6 3 3 6 10 9 6 5 5 5 5 4 4 3 2 1 0 1 1 2 2 3 3 4 3 2 2 2 2 1 1 2 3 5 5 5 4 4 4 4 5 6 5 3 2 3
5 5 5 5 6 3 4 8 6 4 2 2 3 3 3 3 3 2 2 2 2 2 2 2 3 3 4 5 4 4 3 2 1 1 2 1 3 4 4 5 5 4 4 5 5 6 5 4 1
6 6 6 4 3 4 1 5 8 5 4 3 4 3 3 3 2 2 2 2 3 3 2 2 3 3 4 5 5 6 4 3 2 1 1 2 2 3 4 4 4 4 4 4 5 4 3 5 4
6 3 4 3 3 4 2 3 8 3 5 6 5 3 3 2 2 2 2 3 2 2 2 2 3 3 4 5 6 5 4 3 2 2 3 2 1 2 3 4 4 4 4 4 4 3 3 3 3
2 2 2 3 2 3 4 5 7 4 5 4 4 3 3 2 1 1 1 1 1 1 2 3 3 3 3 4 5 6 6 5 4 3 3 2 1 1 2 3 3 4 4 4 4 4 4 3 3
3 4 3 4 2 6 2 4 8 7 5 4 4 4 3 2 2 1 1 2 2 2 3 3 3 3 3 4 4 5 6 6 6 5 4 3 2 2 3 2 3 3 3 4 4 4 4 4 4
3 5 5 4 5 5 3 6 7 5 3 2 2 3 2 2 2 2 2 2 3 3 3 4 3 3 3 3 3 3 4 4 3 3 3 4 3 3 3 3 3 3 4 4 3 3 3 3 3
4 4 5 4 2 4 6 6 7 3 2 1 1 1 2 2 3 3 2 2 3 3 4 4 4 3 3 3 3 2 3 3 3 3 3 2 2 2 4 4 3 3 3 3 4 3 3 3 3
4 5 4 3 3 5 6 5 5 6 5 3 3 3 3 3 2 2 2 2 2 3 3 4 4 4 3 3 3 2 3 3 4 4 4 3 4 4 4 4 3 3 3 3 3 4 4 4 3
3 3 4 4 4 4 4 7 6 6 6 5 6 5 4 4 3 3 3 3 2 2 2 3 3 3 3 3 3 2 2 2 3 3 4 4 4 4 4 4 4 4 4 4 4 4 5 5 4
5 6 6 4 5 4 4 8 5 4 4 4 5 4 4 4 3 3 3 3 2 2 2 2 3 3 3 3 2 2 2 2 3 4 4 4 4 4 4 4 4 4 4 4 5 5 5 6 5
Wind_Direction
333 335 43 56 60 60 189 245 245 338 333 290 301 108 119 119 130 165 210 126 114 138 152 150 142 136 127 130 136 138 140 148 143 142 143 144 141 137 133 132 131 132 131 128 127 124 120 117 116
329 357 52 60 91 115 254 250 260 248 247 292 7 63 76 73 80 101 36 359 116 132 136 148 147 144 140 139 147 148 147 152 152 152 150 149 148 144 139 138 136 134 132 133 131 128 124 120 117
339 53 75 74 117 175 208 223 224 262 312 17 20 39 80 81 81 130 239 147 107 117 131 143 147 153 151 152 158 158 158 155 157 155 155 154 154 150 145 145 140 136 135 134 133 132 130 125 120
49 45 58 78 155 217 205 230 241 325 350 12 51 30 17 5 38 197 140 99 95 85 110 149 145 160 161 164 166 170 165 163 159 157 158 161 159 154 150 147 145 141 138 137 136 136 133 128 122
60 72 69 56 245 244 234 274 296 68 353 344 32 45 338 337 36 92 91 92 95 87 94 144 148 154 167 171 172 173 170 164 159 159 161 163 162 157 153 149 148 146 143 144 141 140 136 131 123
55 68 93 185 255 280 318 319 26 35 334 342 32 31 255 291 45 65 77 81 98 117 114 135 142 153 162 172 174 176 171 167 160 161 165 165 165 161 155 154 153 149 149 148 145 140 139 135 124
94 96 144 189 233 295 322 332 72 10 342 308 295 185 272 307 324 46 81 84 71 81 88 95 124 141 160 174 174 175 172 167 161 156 158 163 165 161 156 155 154 150 148 145 141 139 140 134 121
113 102 106 248 203 247 303 339 352 9 277 291 116 180 251 274 297 9 47 65 64 66 79 46 101 117 136 166 174 167 167 165 161 153 146 146 152 156 154 151 152 150 146 143 141 139 137 132 121
84 81 164 222 204 248 313 349 327 310 306 328 297 222 242 265 338 25 23 24 30 37 39 33 23 127 140 151 165 166 162 158 156 154 144 140 140 140 145 148 148 149 146 145 141 136 133 124 119
81 132 210 211 185 216 297 312 304 335 325 310 315 323 335 334 8 12 338 318 339 322 330 4 325 174 150 152 147 155 158 155 156 155 149 146 141 136 137 138 140 144 145 146 143 135 124 115 109
119 179 213 235 215 209 270 296 291 260 278 256 260 284 301 299 304 279 248 232 232 228 230 249 270 240 165 139 143 140 152 153 150 150 150 146 137 133 131 133 133 135 138 136 132 124 120 117 115
137 239 224 242 236 228 248 268 280 238 248 247 238 236 249 267 263 248 239 235 239 237 238 243 248 248 208 163 156 153 148 152 152 152 150 145 137 132 134 133 135 135 137 131 128 125 126 121 120
232 271 273 258 262 255 262 258 257 263 258 262 260 254 249 258 254 245 238 239 231 225 239 256 229 218 225 172 164 156 154 159 158 157 157 152 146 148 141 137 138 138 141 140 134 128 124 118 117
229 275 292 278 264 263 254 276 261 269 265 268 263 254 252 255 256 250 241 243 234 225 226 224 220 201 208 192 173 165 148 145 148 155 160 158 154 149 146 142 140 141 146 146 142 135 125 120 118
336 326 316 282 249 252 253 300 256 264 269 266 263 257 256 253 254 246 236 233 232 223 207 202 204 170 179 190 174 148 132 136 138 144 153 157 153 150 146 144 144 144 144 134 128 119 113 112 113
4 356 312 294 233 224 134 279 275 268 257 266 269 267 262 260 259 255 243 235 233 226 202 197 182 149 142 155 157 134 121 122 125 125 129 141 147 148 144 147 149 145 139 130 131 133 120 113 116
10 302 278 300 262 195 191 266 282 286 274 277 279 275 270 271 278 270 255 245 233 215 192 177 163 147 137 120 121 123 116 112 114 120 122 133 138 145 142 148 146 143 137 135 140 135 133 126 121
242 254 271 272 271 233 251 269 285 291 265 265 273 272 270 267 269 266 255 247 250 211 172 166 158 147 131 119 111 103 104 99 94 100 117 131 132 137 136 140 143 137 139 139 133 131 127 133 131
209 231 265 266 265 273 262 273 285 288 274 267 267 266 270 273 275 267 259 172 106 96 129 138 140 138 129 126 124 127 135 124 107 99 110 124 128 134 134 138 141 137 143 150 142 129 131 130 128
236 264 276 288 287 255 279 285 283 274 258 247 245 253 254 274 291 280 266 183 192 188 160 151 152 143 140 144 130 127 125 115 89 49 72 112 126 133 140 139 143 139 132 135 140 135 131 135 137
245 229 247 270 318 307 306 306 294 290 278 268 257 252 249 245 245 239 218 213 194 184 179 172 158 139 137 131 116 104 84 72 68 61 58 76 117 131 137 145 143 143 144 153 152 147 140 153 157
253 235 237 262 316 295 337 296 292 288 300 287 277 276 262 253 235 227 212 208 203 197 180 165 153 144 140 137 138 139 142 148 165 159 113 72 103 121 127 138 140 142 140 153 163 151 144 150 162
232 241 233 236 225 290 259 227 285 301 282 277 264 260 261 244 216 214 209 205 198 171 162 161 149 154 147 147 152 149 146 141 125 115 109 98 101 126 134 135 139 143 147 152 154 140 144 146 160
222 21 26 50 83 280 235 198 277 255 245 263 251 247 256 242 215 216 218 166 140 137 143 137 143 150 151 152 153 154 155 149 144 144 137 138 142 124 136 143 147 146 148 157 160 151 156 155 147
86 81 18 346 327 254 240 209 251 251 245 234 229 233 243 227 195 190 197 174 160 158 154 143 148 154 155 156 163 169 168 165 170 170 166 165 173 176 184 168 165 156 158 161 154 149 160 162 160
203 157 167 222 242 278 288 239 254 262 270 244 213 216 217 220 204 199 199 181 181 178 167 162 164 166 162 165 172 170 170 170 176 176 172 183 191 186 179 171 175 173 163 164 153 148 161 162 162
167 198 186 160 242 268 269 278 298 267 304 300 222 198 229 234 212 198 192 184 188 185 182 173 171 168 172 179 177 170 173 171 179 178 172 186 196 179 173 169 172 174 169 167 160 165 169 161 166
178 161 123 162 212 259 279 266 251 247 253 252 242 237 245 242 226 194 184 192 200 190 184 169 174 177 180 181 183 184 182 182 183 177 179 192 198 181 170 169 171 174 178 174 171 173 175 169 180
181 181 178 182 194 199 261 268 235 225 225 222 229 233 233 230 229 210 199 195 185 160 164 166 172 173 178 183 183 184 191 186 184 192 194 195 195 183 173 174 178 184 189 188 184 188 181 182 189
201 196 168 186 233 209 229 268 279 243 236 219 227 236 240 226 220 209 197 178 170 171 172 178 185 185 191 187 179 191 197 195 197 202 198 191 191 186 178 177 182 191 195 193 190 193 192 192 196
Height
1507 1507 1508 1510 1515 1527 1528 1523 1516 1513 1512 1510 1510 1509 1509 1512 1514 1518 1515 1512 1512 1513 1514 1515 1516 1516 1517 1518 1518 1519 1520 1521 1521 1522 1523 1524 1525 1526 1526 1527 1527 1528 1529 1530 1531 1531 1532 1533 1533
1507 1507 1510 1510 1522 1533 1529 1520 1516 1513 1511 1510 1509 1509 1509 1511 1512 1512 1512 1512 1512 1513 1513 1514 1515 1515 1516 1517 1517 1518 1519 1520 1520 1521 1522 1523 1524 1525 1525 1526 1527 1528 1529 1530 1531 1531 1532 1533 1534
1507 1508 1510 1515 1525 1529 1523 1517 1514 1511 1510 1509 1509 1510 1510 1511 1512 1511 1511 1511 1512 1512 1512 1513 1514 1514 1515 1516 1516 1517 1517 1518 1519 1520 1521 1522 1523 1524 1525 1526 1527 1528 1529 1529 1530 1532 1532 1533 1534
1508 1510 1512 1520 1523 1521 1517 1514 1512 1511 1510 1509 1509 1510 1511 1512 1512 1511 1510 1510 1511 1511 1511 1512 1512 1513 1513 1514 1515 1515 1516 1517 1518 1519 1520 1521 1522 1523 1524 1525 1526 1527 1528 1529 1530 1531 1533 1533 1534
1508 1510 1518 1524 1521 1518 1515 1513 1511 1511 1511 1510 1510 1510 1511 1512 1511 1510 1509 1509 1509 1510 1510 1510 1511 1511 1512 1512 1513 1514 1514 1515 1516 1517 1518 1520 1521 1522 1523 1524 1525 1526 1528 1529 1530 1531 1532 1533 1534
1510 1512 1525 1527 1521 1517 1514 1513 1512 1511 1511 1510 1510 1510 1510 1510 1509 1509 1508 1508 1508 1508 1508 1508 1509 1509 1510 1510 1511 1512 1512 1513 1514 1515 1517 1518 1519 1520 1521 1523 1524 1525 1527 1528 1530 1531 1532 1533 1534
1511 1517 1523 1522 1521 1518 1515 1513 1512 1511 1511 1510 1510 1510 1509 1509 1508 1507 1507 1507 1506 1506 1506 1506 1506 1507 1508 1508 1509 1510 1510 1511 1512 1513 1515 1516 1517 1519 1520 1521 1523 1524 1526 1527 1529 1530 1532 1533 1534
1511 1517 1520 1522 1520 1518 1515 1513 1512 1511 1511 1510 1509 1509 1508 1508 1507 1506 1505 1505 1505 1504 1504 1503 1503 1504 1505 1506 1507 1508 1508 1509 1510 1511 1513 1514 1516 1517 1519 1520 1522 1524 1525 1527 1528 1530 1531 1532 1533
1512 1521 1524 1520 1518 1516 1514 1513 1512 1511 1510 1509 1508 1508 1508 1507 1505 1504 1503 1503 1502 1502 1501 1501 1501 1502 1503 1503 1504 1505 1506 1507 1508 1509 1511 1512 1514 1515 1517 1519 1521 1522 1524 1526 1528 1529 1530 1532 1533
1513 1523 1519 1515 1514 1514 1513 1512 1511 1510 1508 1507 1506 1505 1505 1504 1503 1501 1501 1500 1500 1499 1499 1499 1499 1500 1500 1501 1502 1502 1504 1505 1506 1507 1508 1510 1512 1514 1515 1518 1520 1521 1523 1525 1527 1528 1529 1531 1532
1514 1517 1515 1513 1513 1512 1512 1511 1510 1509 1507 1505 1504 1503 1502 1501 1500 1499 1499 1498 1498 1497 1496 1496 1496 1496 1497 1498 1499 1500 1501 1502 1503 1505 1506 1508 1510 1512 1514 1516 1518 1520 1522 1524 1526 1527 1528 1530 1531
1514 1514 1513 1512 1511 1511 1510 1509 1508 1506 1504 1503 1502 1501 1500 1498 1498 1497 1496 1496 1495 1494 1494 1494 1494 1494 1495 1496 1497 1497 1498 1500 1501 1503 1504 1506 1508 1510 1512 1514 1516 1518 1520 1522 1524 1526 1528 1529 1531
1514 1513 1512 1511 1510 1509 1508 1507 1506 1503 1501 1500 1499 1498 1497 1495 1494 1494 1493 1493 1492 1491 1491 1491 1491 1491 1492 1493 1494 1495 1496 1497 1498 1500 1502 1504 1506 1508 1510 1512 1515 1517 1519 1521 1522 1525 1527 1528 1530
1513 1512 1511 1509 1508 1507 1506 1504 1504 1498 1498 1497 1496 1495 1493 1492 1492 1491 1490 1490 1489 1489 1488 1489 1489 1489 1490 1491 1492 1492 1494 1495 1496 1498 1500 1502 1504 1506 1508 1510 1512 1515 1517 1519 1521 1523 1525 1527 1529
1513 1513 1510 1507 1506 1505 1505 1504 1500 1496 1496 1495 1493 1492 1491 1490 1489 1488 1487 1486 1486 1486 1486 1486 1486 1487 1487 1488 1489 1490 1491 1493 1494 1496 1498 1500 1502 1504 1506 1508 1511 1513 1515 1518 1520 1522 1524 1526 1527
1514 1516 1516 1507 1505 1504 1508 1506 1497 1494 1493 1492 1490 1489 1488 1486 1486 1485 1484 1483 1483 1482 1482 1483 1483 1484 1485 1486 1486 1488 1489 1491 1492 1494 1495 1498 1501 1503 1505 1507 1509 1511 1514 1516 1517 1519 1522 1524 1526
1518 1520 1516 1510 1504 1503 1506 1503 1494 1493 1492 1490 1488 1486 1485 1484 1483 1482 1481 1480 1480 1480 1480 1480 1481 1481 1482 1483 1484 1486 1487 1489 1491 1492 1494 1496 1498 1501 1503 1505 1507 1509 1512 1514 1516 1518 1520 1521 1523
1518 1518 1515 1511 1504 1504 1504 1499 1492 1491 1489 1487 1485 1484 1483 1481 1480 1479 1478 1478 1478 1477 1477 1477 1478 1479 1480 1481 1482 1483 1486 1488 1490 1491 1492 1494 1496 1499 1501 1503 1505 1507 1510 1511 1514 1516 1518 1520 1522
1512 1513 1513 1508 1503 1504 1501 1496 1490 1487 1486 1484 1482 1481 1480 1479 1478 1477 1477 1476 1476 1476 1475 1475 1476 1476 1478 1479 1480 1482 1484 1486 1488 1489 1490 1492 1495 1497 1499 1501 1503 1505 1507 1509 1511 1513 1515 1517 1519
1511 1512 1511 1506 1502 1502 1500 1494 1487 1484 1482 1481 1480 1479 1478 1477 1476 1475 1475 1474 1474 1474 1474 1474 1474 1475 1476 1477 1479 1481 1483 1484 1486 1488 1489 1491 1493 1495 1497 1499 1501 1503 1505 1506 1508 1511 1512 1514 1517
1510 1511 1509 1508 1503 1500 1501 1495 1487 1481 1479 1479 1478 1476 1475 1475 1474 1474 1473 1473 1473 1473 1473 1473 1473 1474 1475 1476 1478 1480 1481 1483 1484 1486 1487 1489 1491 1493 1495 1497 1499 1501 1502 1504 1506 1508 1509 1511 1514
1509 1505 1505 1505 1508 1509 1505 1506 1488 1483 1480 1477 1476 1475 1474 1473 1473 1472 1472 1471 1471 1472 1472 1472 1472 1473 1474 1475 1476 1477 1479 1481 1482 1484 1486 1487 1489 1491 1493 1495 1497 1499 1501 1502 1504 1506 1508 1509 1511
1504 1501 1503 1503 1506 1509 1506 1507 1492 1484 1480 1476 1474 1473 1472 1471 1471 1470 1470 1470 1470 1470 1471 1471 1472 1472 1473 1474 1475 1476 1478 1480 1481 1482 1484 1485 1487 1489 1491 1493 1495 1497 1499 1501 1502 1503 1505 1507 1508
1500 1502 1503 1507 1510 1510 1502 1506 1494 1485 1478 1474 1472 1471 1471 1470 1470 1469 1469 1469 1469 1469 1470 1470 1471 1472 1472 1473 1474 1475 1476 1477 1479 1480 1482 1483 1485 1487 1489 1492 1493 1495 1496 1498 1500 1501 1503 1505 1506
1501 1508 1515 1513 1515 1506 1498 1499 1490 1476 1472 1471 1470 1469 1469 1469 1469 1468 1468 1468 1468 1468 1468 1469 1470 1471 1471 1472 1473 1474 1475 1476 1477 1478 1480 1481 1483 1485 1487 1489 1491 1492 1494 1496 1497 1499 1501 1502 1503
1501 1504 1513 1513 1511 1507 1498 1496 1482 1472 1470 1468 1468 1468 1468 1468 1468 1467 1467 1467 1467 1467 1467 1468 1469 1469 1470 1471 1471 1472 1474 1474 1476 1477 1478 1480 1482 1483 1485 1487 1489 1490 1492 1493 1495 1496 1498 1500 1500
1499 1503 1502 1509 1510 1510 1499 1489 1478 1471 1469 1468 1468 1468 1467 1467 1467 1466 1466 1466 1466 1465 1466 1466 1467 1468 1468 1469 1470 1471 1472 1473 1474 1475 1476 1478 1480 1481 1483 1485 1486 1487 1489 1490 1492 1493 1495 1496 1497
1494 1497 1505 1507 1506 1503 1494 1490 1482 1472 1469 1468 1467 1466 1466 1466 1466 1465 1465 1465 1465 1465 1465 1465 1466 1466 1467 1467 1468 1469 1470 1471 1472 1473 1474 1476 1477 1479 1480 1481 1483 1485 1486 1488 1489 1490 1492 1493 1494
1494 1496 1497 1503 1504 1503 1498 1487 1469 1467 1465 1466 1465 1465 1464 1464 1464 1464 1464 1464 1464 1464 1463 1463 1464 1465 1465 1466 1466 1467 1468 1469 1470 1471 1472 1473 1475 1476 1477 1479 1481 1482 1484 1485 1486 1487 1488 1490 1491
1489 1490 1494 1499 1498 1500 1499 1485 1464 1463 1462 1463 1463 1463 1463 1463 1463 1463 1463 1462 1462 1462 1462 1462 1462 1463 1463 1464 1465 1465 1466 1467 1468 1468 1470 1471 1472 1473 1474 1476 1477 1479 1480 1482 1483 1484 1485 1486 1487